Du Bois, PA

6:42 AM EDT on April 25, 2017 (GMT -0400)
Du Bois-Jefferson County

Weather History for KDUJ - April, 2012

Change the Weather History Date:

Sunday, April 8, 2012

  Actual Average Record
Temperature  
Mean Temperature 47 °F 44 °F  
Max Temperature 62 °F 54 °F 78 °F (2001)
Min Temperature 31 °F 33 °F 11 °F (1982)
Degree Days  
Heating Degree Days 18 21  
Month to date heating degree days 161 181  
Since 1 July heating degree days 4695 6139  
Cooling Degree Days 0 0  
Month to date cooling degree days 0 0  
Year to date cooling degree days 0 0  
Moisture  
Dew Point 25 °F    
Average Humidity 42    
Maximum Humidity 61    
Minimum Humidity 22    
Precipitation  
Precipitation 0.01 in 0.12 in 0.98 in (1980)
Month to date precipitation 0.12 0.94  
Sea Level Pressure  
Sea Level Pressure 29.98 in    
Wind  
Wind Speed 10 mph (West)    
Max Wind Speed 23 mph    
Max Gust Speed 32 mph    
Visibility 10 miles    
Events Rain    
T = Trace of Precipitation, MM = Missing Value Source: NWS Daily Summary

Daily Weather History Graph

Daily Weather History Graph

Search for Another Location

Airport or City:

Trip Planner

Search our weather history database for the weather conditions in past years. The results will help you decide how hot, cold, wet, or windy it might be!

Date:

Astronomy

Apr. 08, 2012 Rise Set
Actual Time 6:46 AM EDT 7:48 PM EDT
Civil Twilight 6:18 AM EDT 8:16 PM EDT
Nautical Twilight 5:44 AM EDT 8:50 PM EDT
Astronomical Twilight 5:09 AM EDT 9:25 PM EDT
Moon 10:35 PM EDT (4/8) 7:40 AM EDT (4/8)
Length of Visible Light 13h 58m
Length of Day
13h 02m
Waning Gibbous, 95% of the Moon is Illuminated
Apr 8
Waning Gibbous
Apr 13
Last Quarter
Apr 21
New
Apr 29
First Quarter
May 5
Full

Hourly Weather History & Observations

Time (EDT) Temp. Windchill Dew Point Humidity Pressure Visibility Wind Dir Wind Speed Gust Speed Precip Events Conditions
12:56 AM 39.9 °F 35.1 °F 15.1 °F 36% 30.12 in 10.0 mi West 6.9 mph - N/A   Clear
1:56 AM 37.0 °F 31.6 °F 16.0 °F 42% 30.11 in 10.0 mi West 6.9 mph - N/A   Clear
2:56 AM 37.0 °F 31.6 °F 16.0 °F 42% 30.08 in 10.0 mi WSW 6.9 mph - N/A   Clear
3:56 AM 36.0 °F 32.1 °F 15.1 °F 43% 30.06 in 10.0 mi WSW 4.6 mph - N/A   Clear
4:56 AM 33.1 °F 27.7 °F 16.0 °F 50% 30.06 in 10.0 mi WSW 5.8 mph - N/A   Clear
5:56 AM 33.1 °F 27.7 °F 17.1 °F 52% 30.06 in 10.0 mi WSW 5.8 mph - N/A   Clear
6:56 AM 33.1 °F - 17.1 °F 52% 30.06 in 10.0 mi Calm Calm - N/A   Clear
7:56 AM 37.0 °F 31.6 °F 21.0 °F 52% 30.07 in 10.0 mi WSW 6.9 mph - N/A   Clear
8:56 AM 43.0 °F 39.5 °F 21.9 °F 43% 30.04 in 10.0 mi West 5.8 mph - N/A   Clear
9:56 AM 48.0 °F - 21.0 °F 34% 30.02 in 10.0 mi WSW 8.1 mph - N/A   Clear
10:56 AM 53.1 °F - 21.9 °F 30% 29.99 in 10.0 mi West 6.9 mph 16.1 mph N/A   Clear
11:56 AM 57.9 °F - 21.0 °F 24% 29.95 in 10.0 mi WSW 11.5 mph 18.4 mph N/A   Mostly Cloudy
12:56 PM 61.0 °F - 21.0 °F 21% 29.92 in 10.0 mi West 16.1 mph 24.2 mph N/A   Mostly Cloudy
1:56 PM 57.9 °F - 21.0 °F 24% 29.91 in 10.0 mi West 16.1 mph 28.8 mph N/A   Overcast
2:56 PM 55.0 °F - 27.0 °F 34% 29.91 in 10.0 mi West 13.8 mph 24.2 mph N/A   Overcast
3:56 PM 51.1 °F - 36.0 °F 56% 29.93 in 10.0 mi West 18.4 mph 26.5 mph N/A   Overcast
4:56 PM 46.9 °F - 41.0 °F 80% 29.95 in 6.0 mi NW 17.3 mph 28.8 mph 0.01 in Rain Light Rain
5:03 PM 48.2 °F - 41.0 °F 76% 29.91 in 10.0 mi WNW 16.1 mph 28.8 mph 0.00 in   Mostly Cloudy
5:56 PM 48.9 °F - 37.0 °F 64% 29.94 in 10.0 mi WNW 9.2 mph 18.4 mph 0.00 in   Scattered Clouds
6:56 PM 48.0 °F - 36.0 °F 63% 29.93 in 10.0 mi WNW 12.7 mph 23.0 mph N/A   Overcast
7:56 PM 46.9 °F - 34.0 °F 61% 29.93 in 10.0 mi WNW 10.4 mph - N/A   Scattered Clouds
8:56 PM 45.0 °F 41.2 °F 30.0 °F 56% 29.92 in 10.0 mi West 6.9 mph - N/A   Partly Cloudy
9:56 PM 44.1 °F 38.6 °F 27.0 °F 51% 29.91 in 10.0 mi WSW 10.4 mph - N/A   Clear
10:56 PM 44.1 °F 37.7 °F 25.0 °F 47% 29.91 in 10.0 mi West 12.7 mph - N/A   Clear
11:56 PM 44.1 °F 38.1 °F 21.9 °F 42% 29.91 in 10.0 mi WNW 11.5 mph 23.0 mph N/A   Scattered Clouds